sat.trackr.live / text

‹ back to catalog

IRIDIUM 104

NORAD 41922 · 2017-003F

PAYLOAD ACTIVE UNKNOWN

§ Identity

Operator
Country
US
Launch date
2017-01-14
Launch site
AFWTR
Launch vehicle
Mass (kg)
RCS (m²)
2.89

Purposes: comms

External: N2YO · Heavens-Above · Gunter

§ Orbital elements

Epoch: 2026-09-20T03:57:02.787840Z

Period
100.40 min
Inclination
86.3949°
Eccentricity
0.0002463
Mean motion
14.34220591 rev/d
Perigee alt
775.9 km
Apogee alt
779.4 km
Semi-major
7,155.8 km
B*
4.3076e-5
RAAN
48.7411°
Arg perigee
92.6544°
Mean anomaly
267.4933°
Rev number
50,688

§ Raw data

IRIDIUM 1041 41922U 17003F   26263.16461560  .00000140  00000+0  43076-4 0  99952 41922  86.3949  48.7411 0002463  92.6544 267.4933 14.34220591506881

JSON: /api/v1/satellites/41922 · /tle

For live sub-satellite position, see the globe view (requires WebGL).

§ Visibility from observer

Set your observer location to see the next 7 days of passes ≥ 10°. The values pass through the URL so the page stays shareable.

No JS? Fill the form by hand. The geolocation button needs JavaScript.